STARLINK-31988

Last updated on Fri Sep 20 2024 00:02:03 GMT+0000 (Coordinated Universal Time)

1 60601U 24150U 24263.42768210 .00009939 00000+0 25796-3 0 9993 2 60601 53.1593 280.2951 0002895 156.2940 203.8199 15.39642045 5825
UTC large
Height (km)
Speed (km/s)
/
Latitude / Longitude
Inclination (degrees)
Orbital Period (minutes)
Azimuth
Elevation
Range (km)
Doppler Factor

Next 0 passes for location: London (51.5072 / 0.1276)

Sorry there are no passes over London.